Theta_e
312 312 312 311 311 310 310 310 310 310 310 310 311 311 311 311 311 312 313 313 314 314 314 313 313 312 302 293 293 304 315 310 305 309 310 305 297 296 291 292 296 290 292 296 301 301 300
312 312 311 311 310 310 309 310 310 310 311 311 311 311 311 311 312 312 313 314 314 314 314 314 312 312 299 288 302 304 303 304 302 301 308 304 298 298 295 293 293 295 296 297 298 296 296
311 311 311 310 310 309 309 309 310 310 310 311 311 311 311 311 312 312 314 313 313 314 314 315 312 309 298 295 304 304 303 301 301 301 300 307 305 298 296 293 297 297 293 296 296 295 296
311 311 311 310 310 309 309 309 310 309 309 310 311 311 310 311 312 313 314 313 313 314 316 314 313 302 292 305 304 304 303 302 302 302 301 303 306 300 295 298 298 295 294 288 295 296 298
311 310 310 310 309 309 308 309 309 309 309 310 311 311 311 311 311 313 313 312 313 317 314 314 302 296 293 308 303 306 305 301 301 301 300 305 306 299 297 292 288 290 286 289 292 296 296
311 310 310 310 309 309 308 308 308 308 309 309 310 310 310 311 312 312 311 312 312 313 311 311 308 292 296 297 301 304 304 304 299 298 296 295 291 289 287 288 283 285 287 290 291 293 294
310 310 310 310 309 309 308 308 308 308 308 309 309 310 310 311 312 311 307 296 295 292 293 291 293 295 296 300 303 300 306 302 298 294 287 290 285 285 285 287 289 289 288 288 292 296 293
310 309 310 309 309 308 309 308 308 308 308 308 309 309 310 310 311 310 300 293 295 296 289 297 297 296 299 299 296 303 308 297 295 289 288 285 283 288 291 291 289 288 286 286 290 295 293
310 309 309 309 309 309 309 309 309 309 309 308 308 309 309 310 309 301 297 297 300 297 288 293 298 299 297 299 296 299 304 300 296 292 289 285 287 291 291 289 288 287 286 286 285 290 292
310 309 309 309 309 309 308 308 308 308 308 308 308 308 309 308 299 296 296 300 300 298 283 290 293 296 299 298 295 303 305 300 296 291 290 287 291 289 287 286 287 283 291 291 289 286 280
310 309 309 309 309 309 308 308 308 308 308 308 308 308 309 307 297 295 299 298 297 296 273 291 292 300 299 293 295 296 304 300 293 293 293 289 290 288 285 286 288 285 291 291 291 287 284
310 310 309 309 309 308 308 307 308 308 307 307 307 308 307 301 298 300 300 298 296 281 275 287 292 292 292 294 294 296 295 301 300 295 294 292 296 294 292 294 293 292 291 289 288 285 279
311 310 309 308 309 308 307 307 307 307 307 307 307 307 305 304 296 299 297 294 281 274 289 286 287 291 291 290 290 292 291 289 289 286 284 289 291 295 296 290 292 291 285 278 274 276 277
311 310 309 309 309 308 307 307 307 306 306 306 305 305 302 305 302 300 295 286 276 285 285 292 292 292 289 290 289 290 289 285 292 291 285 282 281 293 297 293 289 286 285 278 270 274 277
312 310 309 309 308 308 307 307 306 306 305 305 304 297 298 301 301 297 291 277 279 285 290 290 290 286 286 289 289 288 288 286 292 292 283 282 283 293 294 296 294 289 284 288 281 284 279
312 311 310 309 308 308 307 307 306 306 305 304 296 293 296 302 298 295 286 283 285 291 293 293 283 287 283 286 285 287 286 291 291 293 292 287 281 290 294 295 295 292 294 283 284 272 275
312 311 310 309 308 307 307 306 306 305 304 304 292 291 298 300 296 289 278 281 288 294 295 289 286 286 287 286 287 285 286 290 292 292 291 288 284 284 289 287 286 288 288 288 285 280 273
313 312 310 309 307 306 306 306 305 304 303 300 295 284 298 296 285 283 280 286 293 292 293 291 291 290 288 289 287 285 285 289 294 293 288 291 287 281 283 290 294 292 290 289 284 279 281
313 313 310 308 307 306 306 305 305 304 303 298 291 291 298 294 279 280 284 287 290 290 290 290 288 292 292 289 284 288 288 293 295 293 290 289 283 278 277 287 293 288 291 290 288 288 282
313 313 309 307 306 305 305 305 305 304 304 299 292 283 286 287 286 282 284 284 285 292 290 291 289 293 290 287 289 287 288 292 295 294 299 296 287 283 275 277 285 284 287 289 288 283 283
313 313 308 306 306 305 304 304 304 304 304 293 287 282 285 279 282 284 283 285 284 284 290 289 289 289 286 283 285 287 289 291 294 296 294 291 284 285 287 288 288 287 287 288 287 288 285
312 312 308 306 305 304 304 303 304 303 303 291 284 285 286 284 286 284 284 282 284 286 286 285 286 287 288 285 286 285 288 288 288 292 289 290 283 285 282 287 286 284 287 288 288 289 290
312 310 306 305 304 304 304 303 303 302 300 287 289 289 289 286 283 285 283 285 285 288 289 291 289 286 286 289 292 293 293 293 292 290 288 288 286 282 280 286 285 282 287 290 291 293 292
311 308 306 305 304 303 303 303 302 302 302 295 290 293 288 279 283 284 286 287 286 287 286 289 290 288 292 296 294 294 294 293 293 292 292 288 286 285 280 282 277 291 299 297 295 297 296
311 307 305 304 303 303 302 302 301 301 302 298 294 292 288 281 286 285 287 285 288 289 288 289 291 294 295 293 286 283 287 289 291 294 293 292 285 282 276 278 284 293 297 294 292 294 300
310 306 305 304 302 302 302 302 301 302 303 300 293 295 293 286 282 288 285 288 285 285 288 290 293 295 295 288 286 280 280 285 285 287 293 290 287 283 279 276 277 291 294 296 298 290 298
308 305 304 303 302 301 301 301 301 302 303 301 294 294 294 286 287 288 286 286 290 289 286 288 289 291 295 286 280 281 281 288 281 283 283 284 284 281 281 279 285 293 292 299 287 288 295
306 305 304 302 301 301 301 301 301 302 303 300 293 293 294 289 290 291 291 287 288 289 285 287 287 291 289 284 285 284 282 285 285 286 283 283 280 280 283 279 278 291 293 292 295 297 295
305 304 303 302 301 301 301 300 301 302 303 302 293 295 299 292 290 294 294 295 294 293 290 291 290 290 292 285 287 286 284 284 285 280 287 282 284 280 282 283 287 293 296 299 298 295 295
Wind_Speed
20 21 21 22 22 22 22 22 22 23 24 25 26 27 27 27 28 28 29 29 29 25 17 13 8 7 3 4 11 10 16 12 14 3 11 11 7 5 8 6 8 7 3 7 19 11 8
20 20 21 21 21 21 22 22 23 23 22 23 25 27 27 26 26 26 25 25 25 24 21 14 7 3 2 4 8 9 9 12 4 4 6 9 9 9 5 4 10 4 10 19 14 9 5
20 21 21 21 22 22 23 23 23 24 24 24 25 27 27 26 26 26 25 24 24 21 18 10 4 4 1 11 3 4 6 5 4 4 5 10 15 4 5 5 7 8 11 12 13 4 8
20 20 21 21 22 22 23 24 25 25 25 25 26 26 27 26 25 26 25 25 22 17 9 2 6 2 9 6 5 9 4 7 8 8 9 13 9 11 3 6 6 3 3 4 9 11 8
20 21 21 21 22 22 23 24 25 26 27 27 26 27 28 28 27 26 26 25 12 5 8 10 4 3 11 2 3 8 9 6 4 6 6 9 5 7 3 5 5 4 6 7 6 4 7
20 21 21 22 22 23 24 24 25 26 27 28 27 27 27 28 28 26 28 20 4 9 3 4 3 1 4 9 7 10 6 9 8 6 5 3 1 5 2 7 11 5 4 2 4 2 6
20 21 22 23 24 24 25 25 26 26 27 28 28 27 27 27 27 26 15 6 7 6 2 4 12 5 11 10 7 5 8 3 2 1 3 4 4 7 11 5 4 10 12 7 6 10 9
19 20 22 23 25 25 25 26 27 27 28 29 30 28 28 27 26 25 1 4 3 6 9 6 11 9 11 6 6 8 7 5 3 7 4 1 10 15 8 7 7 9 10 13 5 6 6
19 21 22 23 24 24 26 26 27 27 27 28 27 29 26 29 29 3 2 5 4 3 2 10 6 4 7 6 5 10 7 8 11 13 7 10 9 3 8 8 11 9 13 8 6 7 15
20 20 22 22 22 23 27 28 28 28 29 29 29 27 27 28 3 4 5 3 2 4 3 7 3 3 8 10 4 10 3 6 4 7 5 7 5 11 12 8 8 6 4 1 5 5 5
20 20 21 21 22 24 26 28 29 29 29 29 31 31 27 15 4 3 7 5 3 4 4 6 1 2 8 2 9 5 3 5 6 9 3 7 4 3 8 13 9 9 7 6 4 7 3
19 20 21 21 23 24 25 28 29 31 31 33 31 33 28 2 1 9 7 7 4 8 6 6 5 20 12 13 5 8 5 1 4 4 6 12 4 5 7 5 6 5 5 2 4 3 9
18 19 20 22 22 23 25 27 29 31 32 34 36 34 15 3 6 2 4 5 5 4 6 7 15 16 17 10 12 7 12 8 4 6 7 10 3 4 7 4 3 5 7 2 2 4 11
17 18 19 20 21 22 24 26 29 30 33 34 36 28 4 6 4 6 5 6 3 1 5 10 13 18 7 13 7 13 6 3 3 2 5 5 6 1 1 4 6 7 9 6 7 6 12
17 17 18 20 20 20 22 25 27 30 31 34 30 6 5 4 3 3 6 5 4 3 8 8 11 7 4 15 9 6 6 3 3 5 3 4 6 6 10 10 4 4 6 10 4 5 3
16 16 17 18 19 20 21 23 26 29 31 31 7 5 5 9 2 5 6 3 3 3 8 7 5 5 17 15 7 6 4 5 1 2 4 6 12 7 4 3 5 13 4 3 3 5 7
16 16 15 16 18 19 21 22 24 27 31 26 4 5 5 11 4 7 4 4 6 5 12 6 10 7 8 10 4 3 6 7 6 5 5 5 6 6 8 4 5 2 5 6 4 5 6
18 15 13 14 16 19 20 21 23 24 27 9 5 4 7 7 7 3 3 8 9 6 9 9 8 4 5 7 6 6 7 5 5 5 7 2 5 6 10 11 5 3 3 2 4 5 5
17 15 10 11 14 16 18 20 22 24 20 5 6 5 5 6 5 4 7 8 6 9 10 4 6 2 6 4 8 7 7 5 10 5 3 2 4 6 10 2 3 3 4 7 3 3 8
17 14 6 8 11 14 15 18 20 24 23 2 3 5 6 6 2 2 6 7 5 7 12 11 11 5 7 13 11 7 11 8 3 13 21 14 6 8 10 9 3 11 12 11 7 5 7
15 12 5 6 9 12 14 17 18 21 25 3 4 1 0 6 4 8 2 5 9 9 4 11 5 8 17 8 18 6 9 12 12 16 1 3 5 9 16 21 21 22 23 19 19 15 12
14 9 4 5 7 10 11 13 15 19 19 5 3 4 4 5 8 5 3 4 8 11 8 14 6 20 21 11 15 24 20 16 6 4 2 2 5 4 15 20 19 22 21 20 22 21 20
12 5 4 4 6 9 10 11 12 14 9 3 3 3 1 5 4 7 4 11 18 15 10 8 17 23 20 17 19 27 22 19 13 4 3 3 3 3 6 8 13 11 13 16 14 13 16
10 7 5 4 5 7 9 10 11 11 9 1 2 2 3 5 3 7 15 18 16 16 17 24 18 11 11 25 22 9 4 7 7 8 9 4 2 3 7 9 5 6 12 14 1 1 6
7 8 5 4 4 6 8 9 9 9 9 1 0 1 3 5 7 15 8 13 15 16 15 18 17 12 19 12 6 7 3 0 4 1 3 9 1 4 3 4 8 5 11 12 9 4 2
8 7 5 5 4 6 7 9 9 9 11 2 2 2 2 5 5 7 15 13 12 13 9 7 13 8 5 3 3 5 4 5 5 7 5 4 1 2 3 4 4 6 21 24 14 1 5
9 8 8 6 4 6 7 8 9 11 11 3 2 2 2 4 6 2 7 9 7 5 7 10 8 6 3 3 3 3 3 5 6 7 6 4 2 3 4 4 7 11 30 18 2 4 12
10 9 8 5 5 6 7 8 10 12 11 2 4 4 3 4 12 9 5 5 6 6 5 7 9 1 3 4 3 3 2 4 4 3 5 4 5 4 4 5 7 29 23 6 7 13 15
10 8 7 5 7 6 7 8 10 11 12 5 2 2 3 5 9 13 19 23 23 27 10 4 5 7 4 2 2 2 2 3 5 4 3 2 3 4 3 3 11 16 11 12 16 17 15
Wind_Direction
16 14 11 9 6 2 358 355 351 349 345 341 339 338 338 335 332 328 325 322 319 319 324 318 294 287 59 11 256 281 320 318 327 282 196 202 201 175 188 208 222 240 266 249 241 252 246
11 10 8 5 2 359 355 352 350 347 343 339 337 337 338 335 331 326 319 313 310 314 319 316 295 275 183 310 223 246 278 309 264 291 213 190 205 200 269 241 196 245 213 250 266 248 240
9 7 5 1 358 357 353 350 348 346 343 339 336 337 339 336 331 325 315 311 308 313 316 310 244 195 181 237 219 279 295 236 203 261 295 220 231 230 190 288 257 267 281 275 241 216 240
6 4 2 359 357 355 352 349 347 345 342 339 338 338 338 336 332 324 317 313 312 312 329 105 166 132 247 251 291 293 202 277 233 222 233 256 212 230 197 304 318 302 245 218 265 184 216
4 1 359 357 355 352 351 348 346 344 342 340 339 338 338 335 334 329 323 317 323 71 105 133 103 116 281 298 281 249 182 245 278 245 222 250 199 210 237 222 319 236 243 226 293 211 201
0 358 356 354 353 350 348 347 345 344 342 341 340 339 337 334 332 331 325 319 328 97 139 199 226 330 290 313 298 299 238 235 248 305 339 150 141 185 268 185 224 219 258 235 208 294 201
358 355 353 352 352 349 347 346 345 343 341 340 340 340 337 333 330 330 336 6 10 347 44 233 269 252 278 272 286 292 309 320 284 147 225 258 163 226 234 231 243 294 288 274 304 320 337
355 353 352 351 349 347 346 345 343 342 341 339 336 339 337 333 328 322 342 62 270 227 311 302 255 239 265 254 300 325 8 339 253 240 222 282 224 228 182 205 234 247 265 277 288 265 295
352 352 350 350 347 344 345 344 341 340 341 337 335 333 338 331 323 6 264 227 259 124 309 295 252 262 321 324 291 316 8 307 294 279 230 215 249 263 221 215 237 237 245 256 258 283 277
349 349 348 347 345 343 343 343 340 339 339 336 331 331 333 335 349 313 282 183 142 147 43 282 315 288 1 321 345 316 339 284 306 300 284 237 247 234 219 220 195 221 239 296 307 272 258
345 346 345 344 343 343 341 339 339 338 337 335 330 328 331 324 262 313 253 6 349 71 347 312 210 254 330 359 281 297 287 298 270 266 282 256 293 221 220 222 225 237 215 229 265 262 12
340 341 342 341 341 341 341 338 338 337 338 333 331 326 332 50 219 243 334 317 77 46 268 331 353 324 323 320 286 295 311 267 268 289 249 253 275 206 221 193 207 213 162 142 180 130 246
334 336 337 338 339 340 340 339 338 338 338 334 330 327 327 189 238 54 327 39 30 128 2 317 317 322 312 302 317 319 321 341 358 339 350 313 251 250 184 176 173 82 107 261 278 194 248
327 328 331 334 338 338 337 339 337 339 337 335 330 323 265 235 313 359 37 35 77 34 288 323 319 310 300 348 325 324 303 323 61 332 292 328 331 345 49 186 205 186 159 179 198 225 252
313 319 324 330 332 334 337 339 339 339 338 337 329 329 318 276 256 114 67 41 233 332 323 309 314 304 281 323 333 320 296 240 153 209 12 315 258 324 278 263 184 236 195 205 272 212 302
301 309 317 324 328 334 338 341 341 339 338 337 327 335 292 322 20 67 77 244 269 293 313 313 309 312 318 322 315 338 296 252 349 49 63 269 289 262 306 313 212 200 149 94 169 200 237
297 297 309 321 330 335 338 341 342 343 339 335 21 1 289 341 59 46 110 253 288 301 338 322 292 300 290 309 268 269 257 305 13 343 337 273 227 290 349 237 195 124 208 212 183 164 179
295 293 302 321 331 337 338 340 342 348 342 10 351 346 327 0 51 23 9 312 299 302 333 301 329 320 260 287 274 271 245 265 30 331 319 280 292 273 240 245 278 264 210 222 214 229 240
292 291 297 321 331 336 339 340 343 343 353 316 333 287 326 51 66 349 317 303 281 325 317 327 286 302 294 295 301 247 269 263 296 254 257 251 257 307 319 351 68 185 214 198 266 284 219
302 299 292 320 331 334 339 342 344 339 341 2 352 347 334 34 97 155 320 311 314 311 300 343 282 307 320 293 278 272 268 287 252 268 267 266 229 212 233 234 294 276 246 239 233 258 244
307 301 261 313 332 332 339 344 346 342 338 85 24 317 246 326 326 316 281 282 330 340 300 313 295 295 316 289 302 249 270 273 283 288 262 168 270 244 259 261 268 266 268 265 251 243 251
307 288 247 306 326 327 335 346 354 348 344 67 43 11 355 280 279 303 307 281 315 323 312 300 273 311 307 285 276 296 300 292 268 283 211 187 268 284 274 266 258 260 260 256 251 244 233
303 232 228 287 315 324 332 346 359 359 19 43 301 316 152 279 300 306 311 323 311 333 297 265 305 306 301 295 310 291 280 274 251 249 207 236 261 292 263 299 288 259 252 242 242 230 210
300 199 221 259 307 321 328 340 355 4 357 159 283 279 287 277 289 295 306 303 315 306 289 295 301 288 274 309 302 289 237 229 233 234 219 258 244 249 294 319 318 329 18 29 137 97 221
252 198 221 258 295 313 322 335 339 354 331 257 82 327 295 288 297 295 312 315 304 306 290 285 289 282 302 307 333 331 327 246 9 41 284 215 186 290 283 291 289 326 20 2 342 304 102
201 198 223 248 280 303 320 321 333 331 318 297 225 212 286 310 256 321 312 298 310 316 299 276 303 286 328 323 317 340 341 324 333 344 77 76 57 285 324 299 310 18 346 328 314 303 39
187 200 223 238 262 294 309 314 326 314 317 324 270 199 255 283 274 271 299 308 290 281 276 301 329 320 7 337 332 327 311 329 337 326 350 331 343 251 269 263 274 2 332 313 337 31 63
197 214 226 232 259 282 302 311 320 307 315 348 261 199 208 256 286 256 254 221 263 261 272 308 324 215 312 342 342 341 304 332 297 359 349 335 323 337 316 336 335 338 328 7 80 71 64
197 211 231 245 267 284 296 311 307 304 313 330 259 240 186 237 261 286 267 255 249 254 261 261 256 314 272 315 325 319 323 325 312 335 0 24 358 302 325 353 297 314 351 45 73 77 78